Weather in Toksovo

Russia / Saint-Petersburg and Leningrad Oblast     60°09′36″N   30°31′54″E
temp.,
°C
wind,
m/s
gust,
m/s
humid.,
%
clouds,
%
prec.,
mm/h
press.,
hPa
HPBL,
m
22 january, sat
sat2200:00−4ne4109699 0.5 1005465
03:00−4nne41194100 0.6 1007588
06:00−3nne51096100 0.3 1009725
09:00−5n51195100 0.9 1011582
12:00−5nne499596 0.6 1013605
15:00−5ne379594 0.8 1015551
18:00−6ne259773 0.4 1017157
21:00−13n1110090 0.4 102010
23 january, sun
sun2300:00−14ene0010096 0.1 10229
03:00−17w1110098 0.1 10249
06:00−18wsw11100100 0.0 102512
09:00−16ssw12100100 0.0 102737
12:00−10ssw3795100 0.0 1027175
15:00−7ssw3994100 0.0 1027325
18:00−6ssw3109496 0.0 1028325
21:00−6ssw31095100 0.1 1029336
24 january, mon
mon2400:00−5ssw41095100 0.1 1029346
03:00−4ssw41196100 0.2 1029370
06:00−3ssw4119698 0.1 1029404
09:00−3ssw5129578 0.1 1028440
12:00−3ssw5159688 0.0 1027503
15:00−1ssw6179268 0.0 1024662
18:00−3ssw71890100 0.0 1022693
21:00−3ssw71791100 0.1 1019729
25 january, tue
tue2500:00−2ssw71692100 0.1 1017728
03:00−1ssw61595100 0.5 1015817
06:000sw51298100 1.0 1013887
09:000wsw4991100 1.3 1013508
12:00−2w4109362 0.1 1014573
15:00−2nw410838 0.1 1016767
18:00−5nw412875 0.0 1019464
21:00−6nw412895 0.0 1021427
26 january, wed
wed2600:00−8nnw310915 0.0 1023266
03:00−11nw26957 0.0 102492
06:00−16nw219850 0.0 10259
09:00−18wsw219956 0.0 102510
12:00−10sw23925 0.0 102470
15:00−8ssw26925 0.0 1022151
18:00−11s3993100 0.0 1020146
21:00−9s31191100 0.0 1017276